Data for 09/08/2017

Time Sea-Level Adjusted Pressure Absolute Pressure Temperature Relative Humidity Dew Point   
(mb) (inHg) (mb) (inHg) (C) (F) (%) (C) (F)
00:05 1019 30.09 848 25.04 19.7 67.4 19 -4.2 24.5
00:10 1019 30.09 848 25.04 19.6 67.3 20 -4.1 24.6
00:15 1019 30.09 848 25.04 19.5 67.1 20 -4.2 24.5
00:20 1019 30.09 848 25.04 19.6 67.2 19 -4.2 24.4
00:25 1019 30.09 848 25.04 19.5 67.1 20 -4 24.8
00:30 1019 30.09 848 25.04 19.3 66.7 20 -4.2 24.5
00:35 1019 30.09 848 25.04 19.3 66.8 20 -4.1 24.6
00:40 1019 30.09 848 25.04 19.3 66.7 20 -4 24.7
00:45 1019 30.09 848 25.04 19.1 66.3 20 -4.1 24.6
00:50 1019 30.09 848 25.04 18.9 66 21 -4 24.8
00:55 1019 30.09 848 25.04 18.8 65.8 21 -4 24.8
01:00 1019 30.09 848 25.04 18.7 65.7 21 -4.1 24.6
01:05 1019 30.09 848 25.04 18.7 65.6 21 -4.1 24.7
01:10 1019 30.09 848 25.04 18.5 65.2 22 -3.8 25.1
01:15 1019 30.09 848 25.04 18.1 64.5 22 -3.6 25.6
01:20 1019 30.09 848 25.04 17.7 63.8 23 -3.8 25.1
01:25 1019 30.09 848 25.04 17.7 63.8 22 -3.9 25
01:30 1019 30.09 848 25.04 17.7 63.9 22 -3.9 25
01:35 1019 30.09 848 25.04 17.6 63.7 23 -3.9 24.9
01:40 1019 30.09 848 25.04 17.6 63.6 23 -3.9 24.9
01:45 1019 30.09 848 25.04 17.7 63.8 22 -4 24.8
01:50 1019 30.09 848 25.04 17.7 63.9 22 -4.1 24.7
01:55 1019 30.09 848 25.04 17.7 63.9 22 -3.9 25
02:00 1019 30.09 848 25.04 17.5 63.5 23 -4 24.8
02:05 1019 30.09 848 25.04 17.3 63.1 24 -3.6 25.5
02:10 1019 30.09 848 25.04 17 62.7 24 -3.6 25.6
02:15 1019 30.09 848 25.04 16.5 61.7 25 -3.5 25.7
02:20 1019 30.09 848 25.04 16.4 61.5 24 -4 24.8
02:25 1019 30.09 848 25.04 16.5 61.8 24 -3.9 24.9
02:30 1019 30.09 848 25.04 16.5 61.6 24 -3.8 25.2
02:35 1019 30.09 848 25.04 16.3 61.4 25 -3.5 25.7
02:40 1019 30.09 848 25.04 15.5 60 28 -3 26.5
02:45 1019 30.09 848 25.04 14.9 58.9 27 -3.6 25.5
02:50 1019 30.09 848 25.04 15 59 27 -3.7 25.3
02:55 1019 30.09 848 25.04 15 59 27 -3.8 25.1
03:00 1019 30.09 848 25.04 14.9 58.9 27 -3.7 25.3
03:05 1019 30.09 848 25.04 15.1 59.2 26 -4 24.8
03:10 1019 30.09 848 25.04 15.5 59.8 26 -3.9 25
03:15 1019 30.09 848 25.04 15.5 59.9 26 -3.8 25.1
03:20 1019 30.09 848 25.04 15.4 59.6 27 -3.6 25.5
03:25 1019 30.09 848 25.04 15.2 59.3 27 -3.7 25.4
03:30 1019 30.09 848 25.04 15.3 59.5 26 -4.2 24.5
03:35 1019 30.09 848 25.04 15.5 59.8 26 -3.8 25.1
03:40 1019 30.09 848 25.04 15.5 59.9 25 -4.2 24.4
03:45 1019 30.09 848 25.04 15.6 60.1 25 -4.2 24.4
03:50 1019 30.09 848 25.04 15.9 60.7 24 -4.4 24.2
03:55 1019 30.09 848 25.04 16 60.9 24 -4.3 24.3
04:00 1019 30.09 848 25.04 15.9 60.7 25 -4.1 24.6
04:05 1019 30.09 848 25.04 15.5 59.8 26 -3.8 25.2
04:10 1019 30.09 848 25.04 15.2 59.3 26 -4 24.7
04:15 1019 30.09 848 25.04 15.1 59.2 26 -4.2 24.4
04:20 1019 30.09 848 25.04 15.6 60 25 -4.5 23.8
04:25 1019 30.09 848 25.04 16.1 61 24 -4.6 23.7
04:30 1019 30.09 848 25.04 16.1 61.1 24 -4.5 23.9
04:35 1019 30.09 848 25.04 16 60.8 24 -4.4 24
04:40 1019 30.09 848 25.04 15.8 60.4 25 -4.1 24.6
04:45 1019 30.09 848 25.04 15.2 59.3 26 -4.1 24.6
04:50 1019 30.09 848 25.04 14.8 58.6 27 -4.1 24.6
04:55 1019 30.09 848 25.04 14.8 58.7 26 -4.3 24.3
05:00 1019 30.09 848 25.04 14.8 58.6 26 -4.3 24.2
05:05 1019 30.09 848 25.04 14.8 58.7 26 -4.6 23.8
05:10 1019 30.09 848 25.04 14.9 58.8 26 -4.1 24.5
05:15 1019 30.09 848 25.04 14.6 58.3 27 -4 24.9
05:20 1019 30.09 848 25.04 14.2 57.5 27 -4.3 24.3
05:25 1019 30.09 848 25.04 14.2 57.5 28 -4 24.8
05:30 1019 30.09 848 25.04 13.9 57 29 -3.7 25.4
05:35 1019 30.09 848 25.04 13.4 56.1 30 -3.7 25.4
05:40 1019 30.09 848 25.04 13.4 56 30 -3.7 25.4
05:45 1019 30.09 848 25.04 13.1 55.7 31 -3.3 26
05:50 1019 30.09 848 25.04 12.7 54.9 32 -3.4 25.8
05:55 1019 30.09 848 25.04 12.4 54.4 32 -3.6 25.5
06:00 1019 30.09 848 25.04 12.8 55.1 30 -4.5 23.9
06:05 1019 30.09 848 25.04 13.4 56.2 30 -3.7 25.3
06:10 1019 30.09 848 25.04 13.2 55.7 30 -3.9 24.9
06:15 1019 30.09 848 25.04 13.3 56 29 -4.1 24.6
06:20 1019 30.09 848 25.04 13.4 56.1 30 -3.9 25.1
06:25 1019 30.09 848 25.04 13.3 56 30 -3.9 25
06:30 1019 30.09 848 25.04 13.2 55.7 30 -3.9 25
06:35 1019 30.09 848 25.04 13.2 55.7 30 -4 24.8
06:40 1019 30.09 848 25.04 13.3 55.9 30 -3.8 25.1
06:45 1019 30.09 849 25.07 13.1 55.5 30 -3.8 25.1
06:50 1019 30.09 849 25.07 13.3 55.9 30 -4.1 24.7
06:55 1019 30.09 849 25.07 13.5 56.3 30 -3.7 25.3
07:00 1019 30.09 849 25.07 13.7 56.7 29 -3.9 24.9
07:05 1019 30.09 849 25.07 14.1 57.3 28 -4.1 24.7
07:10 1019 30.09 849 25.07 14.2 57.6 29 -3.6 25.6
07:15 1019 30.09 849 25.07 14.1 57.5 29 -3.6 25.5
07:20 1019 30.09 849 25.07 14.1 57.3 29 -3.6 25.6
07:25 1019 30.09 849 25.07 14.1 57.5 29 -3.4 25.9
07:30 1019 30.09 849 25.07 14.1 57.4 29 -3.4 25.8
07:35 1019 30.09 849 25.07 14.3 57.7 30 -3 26.7
07:40 1019 30.09 849 25.07 14.4 57.9 31 -2.6 27.3
07:45 1019 30.09 849 25.07 14.5 58.1 30 -2.9 26.8
07:50 1019 30.09 849 25.07 14.8 58.7 29 -2.8 27
07:55 1019 30.09 849 25.07 15.2 59.3 29 -2.5 27.6
08:00 1019 30.09 849 25.07 15.4 59.6 30 -2.1 28.2
08:05 1019 30.09 849 25.07 15.5 59.9 30 -1.9 28.5
08:10 1019 30.09 849 25.07 15.6 60.1 31 -1.3 29.6
08:15 1019 30.09 849 25.07 15.9 60.7 30 -1.6 29.1
08:20 1019 30.09 849 25.07 16.2 61.1 30 -1.3 29.7
08:25 1019 30.09 849 25.07 16.6 61.8 29 -1.4 29.5
08:30 1019 30.09 849 25.07 17.1 62.7 27 -1.8 28.7
08:35 1020 30.12 849 25.07 17.5 63.4 28 -1.2 29.8
08:40 1020 30.12 849 25.07 18.1 64.5 28 -0.7 30.7
08:45 1020 30.12 849 25.07 18.7 65.7 24 -1.8 28.7
08:50 1020 30.12 849 25.07 19.1 66.4 24 -1.8 28.8
08:55 1020 30.12 849 25.07 19.5 67.2 24 -1.6 29.2
09:00 1020 30.12 849 25.07 19.8 67.7 22 -2.1 28.2
09:05 1020 30.12 849 25.07 19.6 67.2 25 -1.1 30.1
09:10 1020 30.12 849 25.07 19.3 66.7 26 -0.6 30.9
09:15 1020 30.12 849 25.07 19.1 66.5 24 -1.8 28.8
09:20 1020 30.12 849 25.07 19.2 66.6 25 -1.2 29.9
09:25 1020 30.12 849 25.07 19.2 66.5 25 -1.1 30
09:30 1020 30.12 849 25.07 19.5 67.1 25 -0.9 30.4
09:35 1020 30.12 849 25.07 19.8 67.7 26 -0.2 31.7
09:40 1020 30.12 849 25.07 19.7 67.4 25 -0.5 31
09:45 1020 30.12 849 25.07 20.4 68.7 26 0.4 32.7
09:50 1020 30.12 849 25.07 20.6 69 26 0.5 33
09:55 1020 30.12 849 25.07 20 68 28 1.3 34.3
10:00 1020 30.12 849 25.07 20.6 69 25 -0 31.9
10:05 1020 30.12 849 25.07 21 69.8 26 1 33.7
10:10 1020 30.12 849 25.07 21.2 70.2 26 1.1 33.9
10:15 1020 30.12 849 25.07 21.4 70.4 26 1 33.9
10:20 1020 30.12 849 25.07 21.8 71.2 24 0.7 33.3
10:25 1020 30.12 849 25.07 21.9 71.4 24 0.8 33.5
10:30 1020 30.12 849 25.07 21.9 71.3 23 0.1 32.2
10:35 1020 30.12 849 25.07 22.1 71.9 21 -0.7 30.7
10:40 1020 30.12 849 25.07 22.1 71.7 23 0.2 32.3
10:45 1020 30.12 849 25.07 22.5 72.5 23 0.3 32.5
10:50 1020 30.12 849 25.07 22.9 73.2 22 0.2 32.4
10:55 1019 30.09 849 25.07 22.4 72.4 22 -0.4 31.2
11:00 1019 30.09 849 25.07 22.6 72.7 21 -0.5 31
11:05 1019 30.09 849 25.07 23 73.4 21 -0.4 31.3
11:10 1019 30.09 849 25.07 23.8 74.8 20 -0.5 31.2
11:15 1019 30.09 848 25.04 23.9 74.9 20 -0.3 31.4
11:20 1019 30.09 848 25.04 23.9 75.1 20 -0.1 31.8
11:25 1019 30.09 848 25.04 24.3 75.7 19 -0.4 31.2
11:30 1019 30.09 848 25.04 23.6 74.5 20 -0.2 31.6
11:35 1019 30.09 848 25.04 24.4 75.8 19 -0.2 31.6
11:40 1019 30.09 848 25.04 25 77 19 -0 32
11:45 1019 30.09 848 25.04 24.7 76.5 19 -0.2 31.7
11:50 1019 30.09 848 25.04 24.7 76.5 18 -1.2 29.8
11:55 1019 30.09 848 25.04 24.4 75.8 18 -1.3 29.7
12:00 1019 30.09 848 25.04 24.3 75.8 18 -1.4 29.5
12:05 1019 30.09 848 25.04 25.1 77.1 17 -1.2 29.8
12:10 1019 30.09 848 25.04 26 78.8 15 -2.4 27.6
12:15 1019 30.09 848 25.04 26.3 79.3 17 -0.8 30.5
12:20 1019 30.09 848 25.04 26.2 79.1 16 -1.5 29.3
12:25 1018 30.06 848 25.04 26.5 79.7 17 0.1 32.1
12:30 1018 30.06 848 25.04 26.7 80 17 -0.4 31.4
12:35 1018 30.06 848 25.04 26.7 80.1 15 -1.4 29.6
12:40 1018 30.06 848 25.04 26.5 79.6 16 -1.6 29.2
12:45 1018 30.06 847 25.01 25.8 78.4 15 -2.2 28
12:50 1018 30.06 847 25.01 25.2 77.4 16 -2.1 28.3
12:55 1018 30.06 847 25.01 26.1 78.9 15 -2.4 27.8
13:00 1018 30.06 847 25.01 26.1 79 14 -2.8 26.9
13:05 1018 30.06 847 25.01 25.7 78.2 15 -2.4 27.7
13:10 1018 30.06 847 25.01 26.4 79.5 14 -2.6 27.4
13:15 1018 30.06 847 25.01 27.3 81.1 15 -1.2 29.9
13:20 1018 30.06 847 25.01 28 82.3 13 -2.4 27.6
13:25 1018 30.06 847 25.01 28.1 82.5 14 -2.1 28.2
13:30 1018 30.06 847 25.01 28.1 82.6 14 -1.7 29
13:35 1018 30.06 847 25.01 28.2 82.7 14 -1.4 29.5
13:40 1018 30.06 847 25.01 28.4 83 14 -0.9 30.4
13:45 1018 30.06 847 25.01 28.5 83.2 14 -1.4 29.4
13:50 1018 30.06 847 25.01 28.5 83.4 15 -0.7 30.7
13:55 1017 30.03 847 25.01 28.7 83.7 14 -1.3 29.6
14:00 1017 30.03 847 25.01 28.9 84 14 -1.1 30
14:05 1017 30.03 847 25.01 28.9 84.1 13 -1.8 28.8
14:10 1017 30.03 847 25.01 27.7 81.9 14 -1.7 28.9
14:15 1017 30.03 846 24.98 27.4 81.3 15 -1.6 29.1
14:20 1017 30.03 846 24.98 27.9 82.1 14 -1.6 29.2
14:25 1017 30.03 846 24.98 28.7 83.6 13 -2.2 28
14:30 1017 30.03 846 24.98 28.7 83.7 12 -2.7 27.1
14:35 1017 30.03 846 24.98 29 84.3 13 -1.8 28.7
14:40 1017 30.03 846 24.98 29 84.2 13 -1.8 28.8
14:45 1017 30.03 846 24.98 29.1 84.4 13 -2.1 28.2
14:50 1017 30.03 846 24.98 29.2 84.6 14 -0.5 31.1
14:55 1017 30.03 846 24.98 29.4 84.8 13 -1.5 29.2
15:00 1017 30.03 846 24.98 28.6 83.4 13 -2.3 27.9
15:05 1017 30.03 846 24.98 29.2 84.6 13 -2 28.4
15:10 1017 30.03 846 24.98 29.4 84.9 13 -1.8 28.7
15:15 1017 30.03 846 24.98 29.5 85.1 13 -1.8 28.8
15:20 1017 30.03 846 24.98 29.4 84.9 13 -1.5 29.3
15:25 1017 30.03 846 24.98 29.3 84.7 13 -1.1 29.9
15:30 1017 30.03 846 24.98 28.9 84.1 14 -0.7 30.7
15:35 1017 30.03 846 24.98 28.7 83.7 14 -0.6 30.9
15:40 1017 30.03 846 24.98 28.4 83.2 15 -0.5 31.1
15:45 1017 30.03 846 24.98 27.5 81.5 17 0.9 33.6
15:50 1017 30.03 846 24.98 26.8 80.2 17 0.3 32.6
15:55 1017 30.03 846 24.98 26.7 80 17 0 32.1
16:00 1017 30.03 846 24.98 26.6 79.9 17 -0.2 31.7
16:05 1017 30.03 846 24.98 26.8 80.3 16 -0.9 30.3
16:10 1017 30.03 846 24.98 27 80.6 16 -1 30.2
16:15 1017 30.03 846 24.98 27.1 80.8 16 -0.5 31.1
16:20 1017 30.03 846 24.98 27.2 80.9 21 3.2 37.7
16:25 1017 30.03 846 24.98 27.1 80.8 20 2.7 36.8
16:30 1017 30.03 846 24.98 26.8 80.2 19 1.6 34.9
16:35 1017 30.03 846 24.98 26.7 80 20 1.8 35.3
16:40 1017 30.03 846 24.98 26.6 79.9 19 1.7 35.1
16:45 1017 30.03 846 24.98 26.7 80 20 2 35.7
16:50 1017 30.03 846 24.98 26.5 79.7 20 1.8 35.2
16:55 1017 30.03 846 24.98 26.4 79.6 20 1.9 35.4
17:00 1017 30.03 846 24.98 26.3 79.4 21 2.3 36.1
17:05 1017 30.03 846 24.98 26.2 79.2 21 2.3 36.1
17:10 1017 30.03 846 24.98 26.2 79.2 21 2.4 36.3
17:15 1017 30.03 846 24.98 26.1 79 21 2 35.7
17:20 1017 30.03 846 24.98 26.1 79 20 1.9 35.5
17:25 1017 30.03 846 24.98 26.3 79.3 20 1.8 35.3
17:30 1017 30.03 846 24.98 26.4 79.4 19 1.1 34
17:35 1017 30.03 846 24.98 26.4 79.6 20 1.9 35.4
17:40 1017 30.03 846 24.98 26.4 79.5 20 2 35.7
17:45 1017 30.03 846 24.98 26.3 79.4 20 1.7 35.1
17:50 1017 30.03 846 24.98 26.3 79.3 20 1.7 35.1
17:55 1017 30.03 846 24.98 26.1 79.1 20 1.9 35.5
18:00 1017 30.03 846 24.98 25.8 78.4 22 2.8 37.1
18:05 1017 30.03 846 24.98 25.5 78 20 1.5 34.7
18:10 1017 30.03 846 24.98 25.7 78.3 20 1.6 34.8
18:15 1017 30.03 847 25.01 25.8 78.4 21 1.8 35.2
18:20 1018 30.06 847 25.01 25.6 78 21 2.1 35.7
18:25 1018 30.06 847 25.01 24.9 76.7 23 2.5 36.5
18:30 1018 30.06 847 25.01 24.5 76 22 1.8 35.2
18:35 1018 30.06 847 25.01 24.5 76.2 21 0.8 33.4
18:40 1018 30.06 847 25.01 24.9 76.9 21 1.1 33.9
18:45 1018 30.06 847 25.01 25 77.1 21 1.6 34.9
18:50 1018 30.06 847 25.01 24.8 76.7 22 1.6 34.9
18:55 1018 30.06 847 25.01 24.3 75.8 23 2.3 36.1
19:00 1018 30.06 847 25.01 23.9 75 23 1.9 35.4
19:05 1018 30.06 847 25.01 23.8 74.8 26 3.5 38.2
19:10 1018 30.06 847 25.01 23.4 74.1 27 3.8 38.8
19:15 1018 30.06 847 25.01 23.1 73.5 27 3.2 37.8
19:20 1018 30.06 847 25.01 22.7 72.9 27 3.2 37.7
19:25 1018 30.06 847 25.01 22.4 72.4 28 3.3 37.9
19:30 1018 30.06 847 25.01 22.4 72.3 29 3.6 38.4
19:35 1018 30.06 847 25.01 22.8 73 26 2.6 36.7
19:40 1018 30.06 847 25.01 23 73.4 25 2.1 35.8
19:45 1018 30.06 848 25.04 23.3 74 24 1.7 35
19:50 1018 30.06 848 25.04 23.8 74.8 25 2.9 37.2
19:55 1018 30.06 848 25.04 23.9 75 23 2 35.6
20:00 1018 30.06 848 25.04 23.8 74.9 24 2.1 35.8
20:05 1018 30.06 848 25.04 24.1 75.3 24 2.3 36.2
20:10 1019 30.09 848 25.04 23.4 74.2 26 3.3 37.9
20:15 1019 30.09 848 25.04 22.4 72.3 27 2.7 36.8
20:20 1019 30.09 848 25.04 22.6 72.7 26 2.2 35.9
20:25 1019 30.09 848 25.04 23.1 73.6 25 2.3 36.1
20:30 1019 30.09 848 25.04 23.3 73.9 26 2.7 36.9
20:35 1019 30.09 848 25.04 22.9 73.1 26 2.8 37
20:40 1019 30.09 848 25.04 22.6 72.6 27 2.7 36.9
20:45 1019 30.09 848 25.04 22.4 72.3 27 2.6 36.8
20:50 1019 30.09 848 25.04 22.6 72.6 27 2.6 36.7
20:55 1019 30.09 848 25.04 22.6 72.7 28 3.2 37.8
21:00 1019 30.09 848 25.04 22.1 71.7 27 2.7 36.8
21:05 1019 30.09 848 25.04 22.4 72.2 27 2.4 36.3
21:10 1019 30.09 848 25.04 22.3 72.2 29 3.6 38.4
21:15 1019 30.09 848 25.04 21.7 71.1 30 3.6 38.5
21:20 1019 30.09 848 25.04 21.5 70.6 30 3.4 38.1
21:25 1019 30.09 848 25.04 21.4 70.6 29 3 37.4
21:30 1019 30.09 849 25.07 21.3 70.3 30 3.3 38
21:35 1019 30.09 849 25.07 20.9 69.6 31 3.3 38
21:40 1019 30.09 849 25.07 20.4 68.8 32 3.2 37.8
21:45 1019 30.09 849 25.07 20.3 68.5 31 2.8 37
21:50 1019 30.09 849 25.07 20.6 69.1 30 2.4 36.3
21:55 1019 30.09 849 25.07 20.9 69.5 30 2.9 37.2
22:00 1019 30.09 849 25.07 20.7 69.3 30 2.9 37.1
22:05 1019 30.09 849 25.07 20.7 69.2 31 2.9 37.3
22:10 1019 30.09 849 25.07 20.6 69 32 3.3 37.9
22:15 1019 30.09 849 25.07 20.2 68.4 33 3.5 38.3
22:20 1019 30.09 849 25.07 20 68 33 3.4 38.1
22:25 1019 30.09 849 25.07 19.9 67.8 34 3.8 38.9
22:30 1019 30.09 849 25.07 20 67.9 33 3.5 38.3
22:35 1019 30.09 849 25.07 20 68.1 34 3.7 38.6
22:40 1019 30.09 848 25.04 20 68 34 3.7 38.7
22:45 1019 30.09 848 25.04 20 68.1 34 3.7 38.7
22:50 1019 30.09 848 25.04 20.1 68.2 35 4.4 40
22:55 1020 30.12 849 25.07 19.7 67.5 35 4.2 39.5
23:00 1020 30.12 849 25.07 19.9 67.9 34 3.6 38.4
23:05 1020 30.12 849 25.07 20.4 68.7 31 3 37.4
23:10 1020 30.12 849 25.07 21 69.8 31 3.2 37.8
23:15 1020 30.12 849 25.07 21.1 70 32 3.9 38.9
23:20 1020 30.12 849 25.07 20.9 69.6 31 3.5 38.3
23:25 1020 30.12 849 25.07 20.8 69.4 32 3.5 38.3
23:30 1020 30.12 849 25.07 20.7 69.3 32 3.6 38.5
23:35 1020 30.12 849 25.07 20.7 69.3 32 3.5 38.3
23:40 1020 30.12 849 25.07 20.8 69.5 31 3.4 38.2
23:45 1020 30.12 849 25.07 20.8 69.4 32 3.8 38.9
23:50 1020 30.12 849 25.07 20.6 69.1 32 3.5 38.3
23:55 1020 30.12 849 25.07 20.4 68.8 33 3.9 39
24:00 1020 30.12 849 25.07 20.2 68.3 37 5.3 41.5